AZU9501 SBGL-SBTC

Flight info

Callsign AZU9501
Flight time 1h 17m
Altitude 37000
Route IMBAP UZ42 XUXUG
Aircraft A20N/M-SDE2E3FGHIRWXY/LB1

Departure

Time 2026-04-18 04:01
Airport Rio Galeão – Tom Jobim International Airport (SBGL)

Arrival

Time 2026-04-18 05:18
Airport Una-Comandatuba Airport (SBTC)
Time Latitude Longitude Altitude Speed Heading
2026-04-18 03:27 -22.81911 -43.24464 24 ft 0 kts 56°
2026-04-18 03:49 -22.81913 -43.24466 24 ft 3 kts 56°
2026-04-18 03:49 -22.81923 -43.24483 27 ft 3 kts 56°
2026-04-18 03:50 -22.81934 -43.24499 26 ft 3 kts 56°
2026-04-18 03:50 -22.81945 -43.24516 27 ft 3 kts 56°
2026-04-18 03:50 -22.81954 -43.24527 27 ft 0 kts
2026-04-18 03:52 -22.81938 -43.24533 24 ft 7 kts 326°
2026-04-18 03:53 -22.81939 -43.24604 28 ft 16 kts 245°
2026-04-18 03:53 -22.81926 -43.24707 25 ft 14 kts 304°
2026-04-18 03:53 -22.81868 -43.24797 25 ft 15 kts 305°
2026-04-18 03:53 -22.81799 -43.24900 25 ft 19 kts 306°
2026-04-18 03:54 -22.81721 -43.25017 25 ft 19 kts 305°
2026-04-18 03:54 -22.81643 -43.25137 24 ft 20 kts 305°
2026-04-18 03:54 -22.81563 -43.25257 27 ft 20 kts 306°
2026-04-18 03:54 -22.81482 -43.25379 24 ft 20 kts 306°
2026-04-18 03:55 -22.81399 -43.25503 24 ft 20 kts 306°
2026-04-18 03:55 -22.81315 -43.25628 24 ft 21 kts 306°
2026-04-18 03:55 -22.81233 -43.25753 25 ft 21 kts 303°
2026-04-18 03:55 -22.81152 -43.25880 25 ft 21 kts 303°
2026-04-18 03:56 -22.81040 -43.25894 28 ft 18 kts 36°
2026-04-18 03:56 -22.80937 -43.25815 28 ft 18 kts 36°
2026-04-18 03:56 -22.80834 -43.25734 27 ft 18 kts 36°
2026-04-18 03:56 -22.80741 -43.25664 32 ft 15 kts 35°
2026-04-18 03:57 -22.80547 -43.25536 33 ft 16 kts 356°
2026-04-18 03:57 -22.80451 -43.25590 33 ft 16 kts 326°
2026-04-18 03:57 -22.80350 -43.25595 30 ft 16 kts 33°
2026-04-18 03:58 -22.80328 -43.25578 30 ft 0 kts 36°
2026-04-18 03:59 -22.80318 -43.25570 29 ft 7 kts 36°
2026-04-18 03:59 -22.80268 -43.25531 28 ft 10 kts 36°
2026-04-18 03:59 -22.80211 -43.25487 28 ft 10 kts 36°
2026-04-18 04:00 -22.80168 -43.25430 28 ft 5 kts 72°
2026-04-18 04:00 -22.80168 -43.25429 28 ft 1 kts 72°
2026-04-18 04:00 -22.80106 -43.25222 28 ft 65 kts 72°
2026-04-18 04:00 -22.79920 -43.24500 35 ft 133 kts 75°
2026-04-18 04:01 -22.79637 -43.23356 185 ft 169 kts 75°
2026-04-18 04:01 -22.79339 -43.22112 790 ft 170 kts 76°
2026-04-18 04:01 -22.79094 -43.20870 1471 ft 169 kts 77°
2026-04-18 04:01 -22.78826 -43.19516 1808 ft 202 kts 76°
2026-04-18 04:02 -22.78488 -43.17896 2153 ft 238 kts 76°
2026-04-18 04:02 -22.78096 -43.16065 2695 ft 258 kts 76°
2026-04-18 04:02 -22.77675 -43.14128 3437 ft 268 kts 76°
2026-04-18 04:02 -22.77247 -43.12163 4263 ft 275 kts 77°
2026-04-18 04:03 -22.76802 -43.10128 5104 ft 280 kts 77°
2026-04-18 04:03 -22.76347 -43.08056 5948 ft 285 kts 78°
2026-04-18 04:03 -22.75883 -43.05947 6787 ft 290 kts 78°
2026-04-18 04:03 -22.75413 -43.03814 7669 ft 293 kts 78°
2026-04-18 04:04 -22.74781 -43.01701 8570 ft 297 kts 68°
2026-04-18 04:04 -22.73702 -42.99780 9497 ft 302 kts 49°
2026-04-18 04:04 -22.72044 -42.98380 10279 ft 311 kts 28°
2026-04-18 04:04 -22.69988 -42.97418 10666 ft 332 kts 20°
2026-04-18 04:05 -22.67766 -42.96582 11259 ft 343 kts 18°
2026-04-18 04:05 -22.65486 -42.95757 12047 ft 348 kts 18°
2026-04-18 04:05 -22.63170 -42.94919 12883 ft 353 kts 18°
2026-04-18 04:05 -22.60829 -42.94069 13733 ft 357 kts 18°
2026-04-18 04:06 -22.58460 -42.93207 14479 ft 361 kts 18°
2026-04-18 04:06 -22.56061 -42.92332 15226 ft 366 kts 17°
2026-04-18 04:06 -22.53636 -42.91446 15931 ft 370 kts 17°
2026-04-18 04:06 -22.51177 -42.90549 16625 ft 375 kts 17°
2026-04-18 04:07 -22.48684 -42.89639 17295 ft 380 kts 17°
2026-04-18 04:07 -22.46164 -42.88719 17961 ft 384 kts 17°
2026-04-18 04:07 -22.43619 -42.87790 18554 ft 388 kts 17°
2026-04-18 04:07 -22.41045 -42.86852 19137 ft 392 kts 17°
2026-04-18 04:08 -22.38461 -42.85909 19726 ft 394 kts 16°
2026-04-18 04:08 -22.35854 -42.84959 20351 ft 396 kts 16°
2026-04-18 04:08 -22.33232 -42.84004 20976 ft 399 kts 15°
2026-04-18 04:08 -22.30596 -42.83044 21614 ft 401 kts 15°
2026-04-18 04:09 -22.27944 -42.82078 22231 ft 404 kts 15°
2026-04-18 04:09 -22.25275 -42.81107 22875 ft 406 kts 15°
2026-04-18 04:09 -22.22591 -42.80131 23504 ft 409 kts 14°
2026-04-18 04:09 -22.19885 -42.79138 24024 ft 413 kts 14°
2026-04-18 04:10 -22.17152 -42.78139 24484 ft 416 kts 14°
2026-04-18 04:10 -22.14400 -42.77148 24930 ft 419 kts 14°
2026-04-18 04:10 -22.11624 -42.76146 25349 ft 423 kts 13°
2026-04-18 04:10 -22.08825 -42.75131 25774 ft 426 kts 13°
2026-04-18 04:11 -22.06004 -42.74107 26207 ft 429 kts 13°
2026-04-18 04:11 -22.03168 -42.73078 26665 ft 432 kts 13°
2026-04-18 04:11 -22.00308 -42.72042 27129 ft 435 kts 13°
2026-04-18 04:11 -21.97432 -42.71003 27544 ft 438 kts 13°
2026-04-18 04:12 -21.94529 -42.69949 27950 ft 441 kts 13°
2026-04-18 04:12 -21.91609 -42.68890 28366 ft 444 kts 13°
2026-04-18 04:12 -21.88676 -42.67828 28756 ft 447 kts 13°
2026-04-18 04:12 -21.85716 -42.66757 29096 ft 451 kts 13°
2026-04-18 04:13 -21.82731 -42.65677 29496 ft 453 kts 12°
2026-04-18 04:13 -21.79736 -42.64593 29885 ft 456 kts 12°
2026-04-18 04:13 -21.76721 -42.63503 30200 ft 458 kts 12°
2026-04-18 04:13 -21.73729 -42.62423 30490 ft 462 kts 12°
2026-04-18 04:14 -21.70672 -42.61319 30780 ft 465 kts 12°
2026-04-18 04:14 -21.67601 -42.60201 31117 ft 467 kts 12°
2026-04-18 04:14 -21.64515 -42.59063 31438 ft 471 kts 14°
2026-04-18 04:14 -21.61498 -42.57631 31860 ft 476 kts 19°
2026-04-18 04:15 -21.58537 -42.56028 32270 ft 477 kts 21°
2026-04-18 04:15 -21.55599 -42.54346 32643 ft 479 kts 21°
2026-04-18 04:15 -21.52675 -42.52632 33012 ft 479 kts 22°
2026-04-18 04:15 -21.49753 -42.50910 33392 ft 479 kts 21°
2026-04-18 04:16 -21.46825 -42.49191 33739 ft 480 kts 21°
2026-04-18 04:16 -21.43891 -42.47481 34073 ft 479 kts 21°
2026-04-18 04:16 -21.40958 -42.45782 34371 ft 480 kts 21°
2026-04-18 04:16 -21.38016 -42.44085 34653 ft 480 kts 20°
2026-04-18 04:17 -21.35073 -42.42391 34931 ft 481 kts 20°
2026-04-18 04:17 -21.32126 -42.40695 35192 ft 481 kts 21°
2026-04-18 04:17 -21.29172 -42.38985 35377 ft 483 kts 20°
2026-04-18 04:17 -21.26212 -42.37283 35675 ft 483 kts 20°
2026-04-18 04:18 -21.23252 -42.35588 35937 ft 482 kts 20°
2026-04-18 04:18 -21.20290 -42.33898 36114 ft 483 kts 20°
2026-04-18 04:18 -21.17321 -42.32207 36366 ft 483 kts 20°
2026-04-18 04:18 -21.14351 -42.30509 36612 ft 484 kts 20°
2026-04-18 04:19 -21.11420 -42.28831 36850 ft 485 kts 20°
2026-04-18 04:19 -21.05471 -42.25421 36902 ft 484 kts 20°
2026-04-18 04:20 -20.99531 -42.22021 36929 ft 484 kts 20°
2026-04-18 04:20 -20.93590 -42.18621 36920 ft 484 kts 20°
2026-04-18 04:21 -20.87657 -42.15228 36929 ft 484 kts 20°
2026-04-18 04:21 -20.82678 -42.12393 36928 ft 483 kts 20°
2026-04-18 04:22 -20.76786 -42.09036 36941 ft 482 kts 19°
2026-04-18 04:22 -20.70864 -42.05661 36961 ft 483 kts 20°
2026-04-18 04:23 -20.64923 -42.02283 36955 ft 484 kts 19°
2026-04-18 04:23 -20.59001 -41.98863 36959 ft 484 kts 21°
2026-04-18 04:24 -20.53119 -41.95343 36962 ft 485 kts 21°
2026-04-18 04:24 -20.47240 -41.91815 36967 ft 485 kts 21°
2026-04-18 04:25 -20.41361 -41.88301 36953 ft 484 kts 21°
2026-04-18 04:25 -20.35480 -41.84798 36969 ft 484 kts 21°
2026-04-18 04:26 -20.29603 -41.81300 36971 ft 484 kts 21°
2026-04-18 04:26 -20.23728 -41.77807 36957 ft 484 kts 21°
2026-04-18 04:27 -20.17849 -41.74317 36956 ft 483 kts 21°
2026-04-18 04:27 -20.11993 -41.70838 36959 ft 482 kts 21°
2026-04-18 04:28 -20.06137 -41.67362 36946 ft 482 kts 21°
2026-04-18 04:28 -20.00283 -41.63890 36943 ft 482 kts 21°
2026-04-18 04:29 -19.94423 -41.60426 36935 ft 481 kts 21°
2026-04-18 04:29 -19.88566 -41.56966 36940 ft 481 kts 21°
2026-04-18 04:30 -19.82717 -41.53512 36931 ft 481 kts 21°
2026-04-18 04:30 -19.76857 -41.50056 36907 ft 481 kts 21°
2026-04-18 04:31 -19.71013 -41.46605 36927 ft 480 kts 21°
2026-04-18 04:31 -19.65172 -41.43159 36922 ft 480 kts 21°
2026-04-18 04:32 -19.59331 -41.39717 36926 ft 480 kts 21°
2026-04-18 04:32 -19.53529 -41.36299 36916 ft 480 kts 21°
2026-04-18 04:33 -19.47686 -41.32873 36927 ft 480 kts 21°
2026-04-18 04:33 -19.41851 -41.29449 36918 ft 479 kts 21°
2026-04-18 04:34 -19.36013 -41.26021 36919 ft 479 kts 21°
2026-04-18 04:34 -19.30181 -41.22601 36911 ft 479 kts 22°
2026-04-18 04:35 -19.24361 -41.19191 36921 ft 478 kts 22°
2026-04-18 04:35 -19.18530 -41.15781 36923 ft 479 kts 21°
2026-04-18 04:36 -19.12709 -41.12377 36922 ft 478 kts 21°
2026-04-18 04:36 -19.06884 -41.08975 36925 ft 479 kts 22°
2026-04-18 04:37 -19.01051 -41.05570 36915 ft 479 kts 22°
2026-04-18 04:37 -18.95220 -41.02165 36931 ft 479 kts 22°
2026-04-18 04:38 -18.89390 -40.98761 36920 ft 479 kts 22°
2026-04-18 04:38 -18.83566 -40.95368 36924 ft 477 kts 22°
2026-04-18 04:39 -18.77746 -40.91981 36932 ft 478 kts 22°
2026-04-18 04:39 -18.71919 -40.88591 36928 ft 478 kts 22°
2026-04-18 04:40 -18.66095 -40.85205 36912 ft 478 kts 22°
2026-04-18 04:40 -18.60287 -40.81829 36925 ft 476 kts 22°
2026-04-18 04:41 -18.54491 -40.78465 36926 ft 476 kts 22°
2026-04-18 04:41 -18.48688 -40.75103 36926 ft 476 kts 22°
2026-04-18 04:42 -18.42895 -40.71748 36909 ft 475 kts 23°
2026-04-18 04:42 -18.37105 -40.68394 36923 ft 474 kts 23°
2026-04-18 04:43 -18.31332 -40.65053 36921 ft 473 kts 23°
2026-04-18 04:43 -18.25570 -40.61723 36923 ft 472 kts 23°
2026-04-18 04:44 -18.19808 -40.58399 36917 ft 472 kts 24°
2026-04-18 04:44 -18.14080 -40.55096 36919 ft 473 kts 24°
2026-04-18 04:45 -18.08314 -40.51770 36922 ft 473 kts 23°
2026-04-18 04:45 -18.02547 -40.48447 36924 ft 473 kts 23°
2026-04-18 04:46 -17.96785 -40.45130 36919 ft 472 kts 24°
2026-04-18 04:46 -17.91037 -40.41823 36922 ft 471 kts 24°
2026-04-18 04:47 -17.85295 -40.38523 36920 ft 470 kts 24°
2026-04-18 04:47 -17.79558 -40.35228 36919 ft 470 kts 24°
2026-04-18 04:48 -17.73797 -40.31981 36910 ft 469 kts 23°
2026-04-18 04:48 -17.68024 -40.28805 36916 ft 468 kts 23°
2026-04-18 04:49 -17.62261 -40.25644 36917 ft 467 kts 23°
2026-04-18 04:49 -17.56499 -40.22478 36920 ft 467 kts 23°
2026-04-18 04:50 -17.50745 -40.19313 36914 ft 467 kts 23°
2026-04-18 04:50 -17.45004 -40.16156 36919 ft 465 kts 23°
2026-04-18 04:51 -17.39274 -40.13006 36920 ft 465 kts 23°
2026-04-18 04:51 -17.33588 -40.09884 36915 ft 465 kts 23°
2026-04-18 04:52 -17.27863 -40.06743 36919 ft 465 kts 23°
2026-04-18 04:52 -17.22142 -40.03607 36921 ft 465 kts 23°
2026-04-18 04:53 -17.16415 -40.00469 36923 ft 464 kts 23°
2026-04-18 04:53 -17.10693 -39.97335 36922 ft 464 kts 23°
2026-04-18 04:53 -17.07834 -39.95771 36728 ft 464 kts 23°
2026-04-18 04:54 -17.04974 -39.94207 36469 ft 464 kts 23°
2026-04-18 04:54 -17.02117 -39.92647 36216 ft 463 kts 24°
2026-04-18 04:54 -16.99261 -39.91086 35973 ft 464 kts 24°
2026-04-18 04:54 -16.96399 -39.89522 35732 ft 464 kts 24°
2026-04-18 04:55 -16.93538 -39.87958 35496 ft 464 kts 24°
2026-04-18 04:55 -16.90676 -39.86396 35262 ft 465 kts 24°
2026-04-18 04:55 -16.87810 -39.84832 35026 ft 465 kts 24°
2026-04-18 04:56 -16.82061 -39.81697 33652 ft 471 kts 24°
2026-04-18 04:56 -16.79144 -39.80110 32935 ft 473 kts 24°
2026-04-18 04:56 -16.76247 -39.78530 32379 ft 465 kts 24°
2026-04-18 04:56 -16.73403 -39.76976 31791 ft 459 kts 24°
2026-04-18 04:57 -16.70578 -39.75436 31190 ft 456 kts 24°
2026-04-18 04:57 -16.67826 -39.73935 30621 ft 448 kts 24°
2026-04-18 04:57 -16.65090 -39.72444 30027 ft 440 kts 23°
2026-04-18 04:57 -16.62395 -39.70976 29381 ft 433 kts 24°
2026-04-18 04:58 -16.59738 -39.69531 28789 ft 430 kts 23°
2026-04-18 04:58 -16.57088 -39.68092 28196 ft 429 kts 23°
2026-04-18 04:58 -16.54438 -39.66655 27611 ft 429 kts 24°
2026-04-18 04:58 -16.51795 -39.65221 27028 ft 428 kts 24°
2026-04-18 04:59 -16.49151 -39.63787 26438 ft 429 kts 24°
2026-04-18 04:59 -16.46504 -39.62352 25843 ft 429 kts 24°
2026-04-18 04:59 -16.43870 -39.60922 25232 ft 424 kts 24°
2026-04-18 04:59 -16.41279 -39.59513 24648 ft 416 kts 24°
2026-04-18 05:00 -16.38732 -39.58128 24059 ft 409 kts 24°
2026-04-18 05:00 -16.36237 -39.56771 23478 ft 402 kts 24°
2026-04-18 05:00 -16.33779 -39.55437 22821 ft 395 kts 24°
2026-04-18 05:00 -16.31372 -39.54132 22248 ft 386 kts 24°
2026-04-18 05:01 -16.29013 -39.52853 21699 ft 380 kts 24°
2026-04-18 05:01 -16.26666 -39.51584 21141 ft 380 kts 24°
2026-04-18 05:01 -16.24329 -39.50321 20575 ft 376 kts 24°
2026-04-18 05:01 -16.22032 -39.49078 20035 ft 368 kts 24°
2026-04-18 05:02 -16.19785 -39.47861 19497 ft 361 kts 24°
2026-04-18 05:02 -16.17561 -39.46658 18959 ft 361 kts 24°
2026-04-18 05:02 -16.15332 -39.45455 18409 ft 359 kts 24°
2026-04-18 05:02 -16.13164 -39.44283 17850 ft 352 kts 24°
2026-04-18 05:03 -16.10973 -39.43098 17304 ft 350 kts 25°
2026-04-18 05:03 -16.08839 -39.41946 16777 ft 349 kts 25°
2026-04-18 05:03 -16.06671 -39.40774 16240 ft 343 kts 25°
2026-04-18 05:03 -16.04590 -39.39650 15736 ft 341 kts 25°
2026-04-18 05:04 -16.02485 -39.38513 15212 ft 341 kts 25°
2026-04-18 05:04 -16.00379 -39.37376 14693 ft 341 kts 25°
2026-04-18 05:04 -15.98272 -39.36239 14179 ft 340 kts 26°
2026-04-18 05:04 -15.96264 -39.34981 13650 ft 335 kts 37°
2026-04-18 05:05 -15.94541 -39.33382 13023 ft 330 kts 43°
2026-04-18 05:05 -15.92935 -39.31708 12509 ft 326 kts 44°
2026-04-18 05:05 -15.91363 -39.30017 12008 ft 325 kts 45°
2026-04-18 05:05 -15.89807 -39.28324 11516 ft 324 kts 45°
2026-04-18 05:06 -15.88257 -39.26630 11025 ft 322 kts 46°
2026-04-18 05:06 -15.86721 -39.24950 10539 ft 320 kts 46°
2026-04-18 05:06 -15.85217 -39.23301 10312 ft 306 kts 46°
2026-04-18 05:06 -15.84242 -39.22232 10102 ft 297 kts 46°
2026-04-18 05:07 -15.82367 -39.20177 9451 ft 296 kts 46°
2026-04-18 05:07 -15.80954 -39.18629 9009 ft 294 kts 46°
2026-04-18 05:07 -15.80006 -39.17590 8726 ft 293 kts 46°
2026-04-18 05:07 -15.78158 -39.15566 8173 ft 290 kts 46°
2026-04-18 05:08 -15.76773 -39.14049 7762 ft 289 kts 46°
2026-04-18 05:08 -15.75395 -39.12540 7342 ft 287 kts 46°
2026-04-18 05:08 -15.74026 -39.11040 6925 ft 286 kts 47°
2026-04-18 05:08 -15.72664 -39.09550 6583 ft 281 kts 47°
2026-04-18 05:09 -15.71359 -39.08121 6394 ft 265 kts 47°
2026-04-18 05:09 -15.70128 -39.06775 6231 ft 249 kts 47°
2026-04-18 05:09 -15.68992 -39.05533 6120 ft 227 kts 47°
2026-04-18 05:09 -15.67947 -39.04390 5922 ft 211 kts 47°
2026-04-18 05:10 -15.66957 -39.03307 5625 ft 202 kts 47°
2026-04-18 05:10 -15.66333 -39.02625 5493 ft 192 kts 47°
2026-04-18 05:10 -15.65454 -39.01664 5369 ft 176 kts 47°
2026-04-18 05:10 -15.64637 -39.00770 5197 ft 165 kts 47°
2026-04-18 05:11 -15.63872 -38.99933 4969 ft 156 kts 47°
2026-04-18 05:11 -15.63144 -38.99137 4722 ft 148 kts 47°
2026-04-18 05:11 -15.62432 -38.98378 4414 ft 146 kts 44°
2026-04-18 05:11 -15.61616 -38.97747 4111 ft 147 kts 31°
2026-04-18 05:12 -15.60668 -38.97360 3817 ft 147 kts 15°
2026-04-18 05:12 -15.59654 -38.97259 3537 ft 147 kts
2026-04-18 05:12 -15.58636 -38.97341 3278 ft 146 kts 356°
2026-04-18 05:12 -15.57626 -38.97455 3027 ft 146 kts 356°
2026-04-18 05:13 -15.56620 -38.97570 2769 ft 145 kts 356°
2026-04-18 05:13 -15.55616 -38.97682 2519 ft 145 kts 356°
2026-04-18 05:13 -15.54619 -38.97793 2288 ft 144 kts 356°
2026-04-18 05:13 -15.53625 -38.97902 2059 ft 143 kts 355°
2026-04-18 05:14 -15.52636 -38.98009 2006 ft 143 kts 355°
2026-04-18 05:14 -15.51642 -38.98117 2011 ft 144 kts 355°
2026-04-18 05:14 -15.50649 -38.98225 2028 ft 144 kts 355°
2026-04-18 05:14 -15.49654 -38.98333 2046 ft 144 kts 355°
2026-04-18 05:15 -15.48662 -38.98440 2068 ft 144 kts 355°
2026-04-18 05:15 -15.47669 -38.98547 2079 ft 143 kts 355°
2026-04-18 05:15 -15.46675 -38.98655 2088 ft 144 kts 356°
2026-04-18 05:15 -15.45681 -38.98762 2105 ft 144 kts 355°
2026-04-18 05:16 -15.44689 -38.98870 2120 ft 144 kts 355°
2026-04-18 05:16 -15.43694 -38.98976 1926 ft 143 kts 355°
2026-04-18 05:16 -15.42707 -38.99082 1642 ft 143 kts 355°
2026-04-18 05:16 -15.41732 -38.99186 1340 ft 143 kts 355°
2026-04-18 05:17 -15.40747 -38.99292 1003 ft 142 kts 354°
2026-04-18 05:17 -15.39767 -38.99397 680 ft 141 kts 354°
2026-04-18 05:17 -15.38796 -38.99501 559 ft 141 kts 354°
2026-04-18 05:17 -15.37818 -38.99605 456 ft 141 kts 353°
2026-04-18 05:18 -15.36843 -38.99709 248 ft 140 kts 353°
2026-04-18 05:18 -15.35875 -38.99813 40 ft 135 kts 353°
2026-04-18 05:18 -15.35137 -38.99898 28 ft 65 kts 354°
2026-04-18 05:18 -15.34858 -38.99916 29 ft 15 kts
2026-04-18 05:19 -15.34837 -38.99930 30 ft 1 kts 240°
2026-04-18 05:19 -15.34856 -38.99929 29 ft 7 kts 174°
2026-04-18 05:19 -15.34958 -38.99918 29 ft 20 kts 174°
2026-04-18 05:19 -15.35097 -38.99900 28 ft 20 kts 167°
2026-04-18 05:20 -15.35240 -38.99885 29 ft 24 kts 175°
2026-04-18 05:20 -15.35415 -38.99868 29 ft 26 kts 175°
2026-04-18 05:20 -15.35595 -38.99853 29 ft 24 kts 173°
2026-04-18 05:20 -15.35680 -38.99840 29 ft 11 kts 172°
2026-04-18 05:21 -15.35731 -38.99816 29 ft 7 kts 108°
2026-04-18 05:21 -15.35733 -38.99755 28 ft 9 kts 88°
2026-04-18 05:21 -15.35729 -38.99693 28 ft 8 kts 86°
2026-04-18 05:21 -15.35721 -38.99640 28 ft 6 kts 54°
2026-04-18 05:22 -15.35703 -38.99625 28 ft 0 kts 358°
2026-04-18 05:22 -15.35700 -38.99626 28 ft 1 kts 349°